Time,TemperatureF,DewpointF,PressureIn,WindDirection,WindDirectionDegrees,WindSpeedMPH,WindSpeedGustMPH,Humidity,HourlyPrecipIn,Conditions,Clouds,dailyrainin,SolarRadiationWatts/m^2,SoftwareType,DateUTC
2013-10-08 00:00:00,64.7,53.1,30.00,NNE,22,0.0,0.0,66,0.00,,,0.00,0.00,VWS V14.00,2013-10-08 05:00:00,
2013-10-08 00:15:00,64.4,54.0,30.00,NNE,22,0.0,0.0,69,0.00,,,0.00,0.00,VWS V14.00,2013-10-08 05:15:00,
2013-10-08 00:30:00,64.5,55.3,30.00,NNE,22,0.0,0.0,72,0.00,,,0.00,0.00,VWS V14.00,2013-10-08 05:30:00,
2013-10-08 00:45:00,64.5,56.0,30.00,NNE,22,0.0,0.0,74,0.00,,,0.00,0.00,VWS V14.00,2013-10-08 05:45:00,
2013-10-08 01:00:00,64.2,56.1,29.99,NNE,22,0.0,0.0,75,0.00,,,0.00,0.00,VWS V14.00,2013-10-08 06:00:00,
2013-10-08 01:15:00,64.1,57.1,29.99,NNE,22,0.0,0.0,78,0.00,,,0.00,0.00,VWS V14.00,2013-10-08 06:15:00,
2013-10-08 01:30:00,63.9,57.3,29.99,NNE,22,0.0,0.0,79,0.00,,,0.00,0.00,VWS V14.00,2013-10-08 06:30:00,
2013-10-08 01:45:00,63.6,57.7,29.99,NNE,22,0.0,0.0,81,0.00,,,0.00,0.00,VWS V14.00,2013-10-08 06:45:00,
2013-10-08 02:00:00,63.2,57.6,30.00,NNE,22,0.0,0.0,82,0.00,,,0.00,0.00,VWS V14.00,2013-10-08 07:00:00,
2013-10-08 02:15:00,62.8,56.9,30.00,NNE,22,0.0,0.0,81,0.00,,,0.00,0.00,VWS V14.00,2013-10-08 07:15:00,
2013-10-08 02:30:00,62.5,56.9,29.99,NNE,22,0.0,0.0,82,0.00,,,0.00,0.00,VWS V14.00,2013-10-08 07:30:00,
2013-10-08 02:45:00,62.3,57.1,29.99,NNE,22,0.0,0.0,83,0.00,,,0.00,0.00,VWS V14.00,2013-10-08 07:45:00,
2013-10-08 03:00:00,62.0,56.8,29.99,NNE,22,0.0,0.0,83,0.00,,,0.00,0.00,VWS V14.00,2013-10-08 08:00:00,
2013-10-08 03:15:00,61.8,57.2,29.99,NNE,22,0.0,0.0,85,0.00,,,0.00,0.00,VWS V14.00,2013-10-08 08:15:00,
2013-10-08 03:30:00,61.4,57.2,29.98,NNE,22,0.0,0.0,86,0.00,,,0.00,0.00,VWS V14.00,2013-10-08 08:30:00,
2013-10-08 03:45:00,61.1,57.2,29.98,NNE,22,0.0,0.0,87,0.00,,,0.00,0.00,VWS V14.00,2013-10-08 08:45:00,
2013-10-08 04:00:00,60.9,57.3,29.98,NNE,22,0.0,0.0,88,0.00,,,0.00,0.00,VWS V14.00,2013-10-08 09:00:00,
2013-10-08 04:15:00,60.5,56.9,29.98,NNE,22,0.0,0.0,88,0.00,,,0.00,0.00,VWS V14.00,2013-10-08 09:15:00,
2013-10-08 04:30:00,60.1,56.8,29.98,NNE,22,0.0,0.0,89,0.00,,,0.00,0.00,VWS V14.00,2013-10-08 09:30:00,
2013-10-08 04:45:00,59.5,56.3,29.98,NNE,22,0.0,0.0,89,0.00,,,0.00,0.00,VWS V14.00,2013-10-08 09:45:00,
2013-10-08 05:00:00,59.0,55.8,29.98,NNE,22,0.0,0.0,89,0.00,,,0.00,0.00,VWS V14.00,2013-10-08 10:00:00,
2013-10-08 05:15:00,59.0,55.8,29.98,NNE,22,0.0,0.0,89,0.00,,,0.00,0.00,VWS V14.00,2013-10-08 10:15:00,
2013-10-08 05:30:00,60.5,57.6,29.99,NNW,338,0.0,4.0,90,0.00,,,0.00,0.00,VWS V14.00,2013-10-08 10:30:00,
2013-10-08 05:45:00,60.1,56.8,29.99,NNW,338,0.0,3.0,89,0.00,,,0.00,0.00,VWS V14.00,2013-10-08 10:45:00,
2013-10-08 06:00:00,59.4,55.8,30.00,NNW,338,0.0,1.0,88,0.00,,,0.00,0.00,VWS V14.00,2013-10-08 11:00:00,
2013-10-08 06:15:00,58.7,54.8,30.00,NNW,338,0.0,2.0,87,0.00,,,0.00,0.00,VWS V14.00,2013-10-08 11:15:00,
2013-10-08 06:30:00,58.4,54.9,30.00,NNW,338,0.0,1.0,88,0.00,,,0.00,0.00,VWS V14.00,2013-10-08 11:30:00,
2013-10-08 06:45:00,58.0,54.2,30.00,NNW,338,0.0,2.0,87,0.00,,,0.00,0.00,VWS V14.00,2013-10-08 11:45:00,
2013-10-08 07:00:00,57.7,53.5,30.00,NNW,338,0.0,0.0,86,0.00,,,0.00,0.00,VWS V14.00,2013-10-08 12:00:00,
2013-10-08 07:15:00,57.2,53.4,30.00,NNW,338,0.0,0.0,87,0.00,,,0.00,0.00,VWS V14.00,2013-10-08 12:15:00,
2013-10-08 07:30:00,57.0,53.2,30.01,NNW,338,0.0,0.0,87,0.00,,,0.00,3.00,VWS V14.00,2013-10-08 12:30:00,
2013-10-08 07:45:00,57.0,53.5,30.01,NNW,338,0.0,0.0,88,0.00,,,0.00,13.00,VWS V14.00,2013-10-08 12:45:00,
2013-10-08 08:00:00,57.3,53.5,30.01,NNW,338,0.0,3.0,87,0.00,,,0.00,48.00,VWS V14.00,2013-10-08 13:00:00,
2013-10-08 08:15:00,59.7,54.2,30.02,NNW,338,0.0,1.0,82,0.00,,,0.00,124.00,VWS V14.00,2013-10-08 13:15:00,
2013-10-08 08:30:00,62.7,55.4,30.01,NNW,338,0.0,3.0,77,0.00,,,0.00,190.00,VWS V14.00,2013-10-08 13:30:00,
2013-10-08 08:45:00,65.3,55.7,30.02,NNW,338,1.0,3.0,71,0.00,,,0.00,265.00,VWS V14.00,2013-10-08 13:45:00,
2013-10-08 09:00:00,67.6,56.3,30.02,NNE,15,1.0,3.0,67,0.00,,,0.00,352.00,VWS V14.00,2013-10-08 14:00:00,
2013-10-08 09:15:00,70.0,58.5,30.03,NNE,22,1.0,5.0,67,0.00,,,0.00,381.00,VWS V14.00,2013-10-08 14:15:00,
2013-10-08 09:30:00,70.8,55.8,30.03,NNW,338,1.0,5.0,59,0.00,,,0.00,436.00,VWS V14.00,2013-10-08 14:30:00,
2013-10-08 09:45:00,72.9,58.7,30.03,NNW,338,0.0,3.0,61,0.00,,,0.00,487.00,VWS V14.00,2013-10-08 14:45:00,
2013-10-08 10:00:00,74.2,57.0,30.03,NNW,338,1.0,5.0,55,0.00,,,0.00,538.00,VWS V14.00,2013-10-08 15:00:00,
2013-10-08 10:15:00,75.3,57.0,30.03,North,0,1.0,4.0,53,0.00,,,0.00,585.00,VWS V14.00,2013-10-08 15:15:00,
2013-10-08 10:30:00,76.3,56.9,30.04,NNW,338,1.0,4.0,51,0.00,,,0.00,630.00,VWS V14.00,2013-10-08 15:30:00,
2013-10-08 11:00:00,79.0,58.2,30.03,NW,315,0.0,4.0,49,0.00,,,0.00,709.00,VWS V14.00,2013-10-08 16:00:00,
2013-10-08 11:15:00,80.0,59.1,30.03,NNW,338,1.0,5.0,49,0.00,,,0.00,745.00,VWS V14.00,2013-10-08 16:15:00,
2013-10-08 11:30:00,80.7,56.2,30.03,WNW,292,1.0,3.0,43,0.00,,,0.00,777.00,VWS V14.00,2013-10-08 16:30:00,
2013-10-08 11:45:00,81.3,56.0,30.03,NW,315,1.0,4.0,42,0.00,,,0.00,803.00,VWS V14.00,2013-10-08 16:45:00,
2013-10-08 12:00:00,81.6,55.0,30.02,West,270,1.0,4.0,40,0.00,,,0.00,824.00,VWS V14.00,2013-10-08 17:00:00,
2013-10-08 12:15:00,81.5,57.5,30.02,West,270,1.0,7.0,44,0.00,,,0.00,843.00,VWS V14.00,2013-10-08 17:15:00,
2013-10-08 12:30:00,81.3,56.0,30.02,West,270,2.0,7.0,42,0.00,,,0.00,856.00,VWS V14.00,2013-10-08 17:30:00,
2013-10-08 12:45:00,81.7,57.0,30.01,WSW,248,1.0,6.0,43,0.00,,,0.00,864.00,VWS V14.00,2013-10-08 17:45:00,
2013-10-08 13:00:00,81.7,55.7,30.00,West,270,1.0,5.0,41,0.00,,,0.00,866.00,VWS V14.00,2013-10-08 18:00:00,
2013-10-08 13:15:00,82.0,55.3,30.00,WNW,292,1.0,6.0,40,0.00,,,0.00,870.00,VWS V14.00,2013-10-08 18:15:00,
2013-10-08 13:30:00,81.8,51.5,29.99,SSW,202,1.0,5.0,35,0.00,,,0.00,870.00,VWS V14.00,2013-10-08 18:30:00,
2013-10-08 13:45:00,81.2,50.2,29.98,South,180,2.0,9.0,34,0.00,,,0.00,863.00,VWS V14.00,2013-10-08 18:45:00,
2013-10-08 14:00:00,81.8,51.5,29.99,South,180,2.0,7.0,35,0.00,,,0.00,851.00,VWS V14.00,2013-10-08 19:00:00,
2013-10-08 14:30:00,81.4,51.9,29.97,South,182,2.0,5.0,36,0.00,,,0.00,802.00,VWS V14.00,2013-10-08 19:30:00,
2013-10-08 14:45:00,81.6,52.8,29.97,East,98,3.0,7.0,37,0.00,,,0.00,777.00,VWS V14.00,2013-10-08 19:45:00,
2013-10-08 15:00:00,81.6,51.3,29.96,SSE,158,2.0,5.0,35,0.00,,,0.00,761.00,VWS V14.00,2013-10-08 20:00:00,
2013-10-08 15:15:00,81.5,49.7,29.95,East,90,2.0,6.0,33,0.00,,,0.00,730.00,VWS V14.00,2013-10-08 20:15:00,
2013-10-08 15:30:00,81.8,49.1,29.95,East,90,1.0,5.0,32,0.00,,,0.00,696.00,VWS V14.00,2013-10-08 20:30:00,
2013-10-08 15:45:00,81.8,49.9,29.94,ESE,112,2.0,5.0,33,0.00,,,0.00,659.00,VWS V14.00,2013-10-08 20:45:00,
2013-10-08 16:00:00,81.9,52.3,29.94,East,90,1.0,6.0,36,0.00,,,0.00,614.00,VWS V14.00,2013-10-08 21:00:00,
2013-10-08 16:15:00,81.9,55.9,29.94,ESE,112,1.0,6.0,41,0.00,,,0.00,565.00,VWS V14.00,2013-10-08 21:15:00,
2013-10-08 16:30:00,81.4,54.1,29.94,East,90,2.0,6.0,39,0.00,,,0.00,515.00,VWS V14.00,2013-10-08 21:30:00,
2013-10-08 16:45:00,81.1,54.5,29.94,ESE,112,2.0,6.0,40,0.00,,,0.00,465.00,VWS V14.00,2013-10-08 21:45:00,
2013-10-08 17:00:00,80.7,54.2,29.94,ESE,112,2.0,5.0,40,0.00,,,0.00,413.00,VWS V14.00,2013-10-08 22:00:00,
2013-10-08 17:15:00,80.6,53.4,29.94,SE,135,1.0,4.0,39,0.00,,,0.00,356.00,VWS V14.00,2013-10-08 22:15:00,
2013-10-08 17:30:00,80.1,56.9,29.94,ESE,112,1.0,5.0,45,0.00,,,0.00,302.00,VWS V14.00,2013-10-08 22:30:00,
2013-10-08 17:45:00,79.2,57.2,29.94,South,180,1.0,5.0,47,0.00,,,0.00,245.00,VWS V14.00,2013-10-08 22:45:00,
2013-10-08 18:00:00,78.5,60.0,29.94,South,180,1.0,7.0,53,0.00,,,0.00,178.00,VWS V14.00,2013-10-08 23:00:00,
2013-10-08 18:15:00,77.8,59.3,29.94,SE,135,1.0,4.0,53,0.00,,,0.00,111.00,VWS V14.00,2013-10-08 23:15:00,
2013-10-08 18:30:00,76.6,59.2,29.94,South,180,1.0,6.0,55,0.00,,,0.00,32.00,VWS V14.00,2013-10-08 23:30:00,
2013-10-08 18:45:00,75.7,60.8,29.94,ESE,112,0.0,3.0,60,0.00,,,0.00,19.00,VWS V14.00,2013-10-08 23:45:00,
2013-10-08 19:00:00,74.8,61.8,29.94,ESE,112,0.0,1.0,64,0.00,,,0.00,10.00,VWS V14.00,2013-10-09 00:00:00,
2013-10-08 19:15:00,74.0,61.5,29.94,ESE,112,0.0,2.0,65,0.00,,,0.00,1.00,VWS V14.00,2013-10-09 00:15:00,
2013-10-08 19:30:00,73.6,61.1,29.95,ESE,112,0.0,2.0,65,0.00,,,0.00,0.00,VWS V14.00,2013-10-09 00:30:00,
2013-10-08 19:45:00,73.3,61.3,29.95,SE,135,0.0,4.0,66,0.00,,,0.00,0.00,VWS V14.00,2013-10-09 00:45:00,
2013-10-08 20:00:00,73.1,62.3,29.94,SE,135,0.0,2.0,69,0.00,,,0.00,0.00,VWS V14.00,2013-10-09 01:00:00,
2013-10-08 20:15:00,72.8,62.5,29.94,SE,135,0.0,3.0,70,0.00,,,0.00,0.00,VWS V14.00,2013-10-09 01:15:00,
2013-10-08 20:30:00,72.6,62.7,29.94,SE,135,0.0,2.0,71,0.00,,,0.00,0.00,VWS V14.00,2013-10-09 01:30:00,
2013-10-08 20:45:00,72.6,63.1,29.95,SE,135,0.0,3.0,72,0.00,,,0.00,0.00,VWS V14.00,2013-10-09 01:45:00,
2013-10-08 21:00:00,72.3,63.2,29.95,SE,135,0.0,2.0,73,0.00,,,0.00,0.00,VWS V14.00,2013-10-09 02:00:00,
2013-10-08 21:15:00,71.7,63.0,29.94,SE,135,0.0,0.0,74,0.00,,,0.00,0.00,VWS V14.00,2013-10-09 02:15:00,
2013-10-08 21:30:00,71.0,62.7,29.95,SE,135,0.0,0.0,75,0.00,,,0.00,0.00,VWS V14.00,2013-10-09 02:30:00,
2013-10-08 21:45:00,70.4,62.5,29.95,SE,135,0.0,0.0,76,0.00,,,0.00,0.00,VWS V14.00,2013-10-09 02:45:00,
2013-10-08 22:00:00,69.8,62.3,29.96,SE,135,0.0,0.0,77,0.00,,,0.00,0.00,VWS V14.00,2013-10-09 03:00:00,
2013-10-08 22:15:00,69.4,62.6,29.95,SE,135,0.0,0.0,79,0.00,,,0.00,0.00,VWS V14.00,2013-10-09 03:15:00,
2013-10-08 22:30:00,69.1,62.3,29.95,SE,135,0.0,0.0,79,0.00,,,0.00,0.00,VWS V14.00,2013-10-09 03:30:00,
2013-10-08 22:45:00,68.8,62.7,29.95,SE,135,0.0,0.0,81,0.00,,,0.00,0.00,VWS V14.00,2013-10-09 03:45:00,
2013-10-08 23:00:00,68.5,63.1,29.95,SE,135,0.0,1.0,83,0.00,,,0.00,0.00,VWS V14.00,2013-10-09 04:00:00,
2013-10-08 23:15:00,68.5,63.5,29.95,SE,135,0.0,0.0,84,0.00,,,0.00,0.00,VWS V14.00,2013-10-09 04:15:00,
2013-10-08 23:30:00,68.2,63.2,29.95,SE,135,0.0,1.0,84,0.00,,,0.00,0.00,VWS V14.00,2013-10-09 04:30:00,
2013-10-08 23:45:00,68.1,63.1,29.95,SE,135,0.0,1.0,84,0.00,,,0.00,0.00,VWS V14.00,2013-10-09 04:45:00,